User: anonymous   Login
Location: *
(17.3280°S, 114.7300°W)
Time: 09:40:57
(UTC+00:00)
Language:

NOAA 6 - Orbit

View from above orbital plane
View from above orbital plane
View from above satellite
View from above satellite

Ground track
Ground track

The orbit data is extracted from the following two-line orbital elements,

1 11416U 79057A   20299.96364947 +.00000048 +00000-0 +33546-4 0  9998
2 11416 098.6628 298.9188 0009540 222.8665 137.1776 14.33597399155622
Epoch (UTC): 25 October 2020 23:07:39
Eccentricity: 0.0009540
inclination: 98.6628°
perigee height: 773 km
apogee height: 786 km
right ascension of ascending node: 298.9188°
argument of perigee: 222.8665°
revolutions per day: 14.33597399
mean anomaly at epoch: 137.1776°
orbit number at epoch: 15562

The dashed part of the orbit path shows where the satellite is in the earth's shadow,  

DLR